EW0538 Weather Reports


time (UTC)temp
C
wind
direction
speed
KPH
gust
KPH
rain 1hr
cm
rain 24hr
cm
rain mn
cm
humidity
%
barometer
mb
20260509135746 8 160 0.0 0.0 0.00 0.00 0.00 49 1011.7
20260509134753 7 117 0.0 0.0 0.00 0.00 0.00 55 1011.8
20260509133747 6 117 0.0 0.0 0.00 0.00 0.00 58 1011.9
20260509132743 5 117 0.0 0.0 0.00 0.00 0.00 60 1012.0
20260509131718 5 117 0.0 0.0 0.00 0.00 0.00 62 1012.1
20260509130706 3 117 0.0 0.0 0.00 0.00 0.00 65 1012.0
20260509125717 3 117 0.0 0.0 0.00 0.00 0.00 66 1011.8
20260509124657 3 117 0.0 0.0 0.00 0.00 0.00 67 1011.7
20260509123713 2 117 0.0 0.0 0.00 0.00 0.00 67 1011.6
20260509122655 2 117 0.0 0.0 0.00 0.00 0.00 66 1011.3
20260509120536 2 117 0.0 0.0 0.00 0.00 0.00 65 1010.9
20260509115502 2 117 0.0 0.0 0.00 0.00 0.00 64 1010.8
20260509114430 2 117 0.0 0.0 0.00 0.00 0.00 64 1010.6
20260509112328 3 117 0.0 0.0 0.00 0.00 0.00 65 1010.2
20260509111325 3 117 0.0 0.0 0.00 0.00 0.00 64 1010.2
20260509110301 3 117 0.0 0.0 0.00 0.00 0.00 63 1010.2
20260509105235 3 117 0.0 0.0 0.00 0.00 0.00 63 1010.3
20260509104225 3 116 0.0 0.0 0.00 0.00 0.00 63 1010.3
20260509103212 3 117 0.0 0.0 0.00 0.00 0.00 62 1010.1
20260509102225 4 117 0.0 0.0 0.00 0.00 0.00 62 1009.8
20260509101214 4 116 0.0 0.0 0.00 0.00 0.00 61 1009.7
20260509100220 4 117 0.0 0.0 0.00 0.00 0.00 61 1009.7
20260509095242 5 117 0.0 0.0 0.00 0.00 0.00 59 1009.5
20260509094235 5 116 0.0 0.0 0.00 0.00 0.00 59 1009.5
20260509093230 5 116 0.0 0.0 0.00 0.00 0.00 60 1009.4
20260509092214 5 117 0.0 0.0 0.00 0.00 0.00 59 1009.3
20260509091210 5 117 0.0 0.0 0.00 0.00 0.00 59 1009.2
20260509090519 5 123 0.0 0.0 0.00 0.00 0.00 80 1009.1
20260509085516 5 123 0.0 0.0 0.00 0.00 0.00 80 1009.1
20260509084539 6 242 0.0 0.0 0.00 0.00 0.00 79 1008.9
20260509082506 6 240 0.0 0.0 0.00 0.00 0.00 77 1008.8
20260509081508 6 240 0.0 0.0 0.00 0.00 0.00 78 1008.7
20260509080457 7 18 0.0 0.0 0.00 0.00 0.00 73 1008.6
20260509075426 7 18 0.0 0.0 0.00 0.00 0.00 72 1008.5
20260509074424 7 18 0.0 0.0 0.00 0.00 0.00 70 1008.4
20260509073420 8 18 0.0 0.0 0.00 0.00 0.00 71 1008.4
20260509072425 8 158 0.0 0.0 0.00 0.00 0.00 69 1008.5
20260509071415 8 260 0.0 0.0 0.00 0.00 0.00 65 1008.5
20260509070434 8 293 0.0 0.0 0.00 0.00 0.00 66 1008.5
20260509065435 9 325 0.0 0.0 0.00 0.00 0.00 65 1008.4
20260509064407 10 325 0.0 0.0 0.00 0.00 0.00 67 1008.5
20260509063401 10 325 0.0 0.0 0.00 0.00 0.00 69 1008.5
20260509061306 11 325 0.0 0.0 0.00 0.00 0.00 59 1008.4
20260509054102 12 267 0.0 0.0 0.00 0.00 0.00 53 1008.3
20260509053047 12 354 0.0 0.0 0.00 0.00 0.00 53 1008.2
20260509052052 11 20 0.0 0.0 0.00 0.00 0.00 61 1008.1
20260509051019 12 20 0.0 0.0 0.00 0.00 0.00 63 1008.1
20260509050014 12 136 0.0 0.0 0.00 0.00 0.00 56 1008.2
20260509045002 12 137 0.0 0.0 0.00 0.00 0.00 55 1008.2
20260509043939 12 136 0.0 0.0 0.00 0.00 0.00 55 1008.2
20260509040800 12 136 0.0 0.0 0.00 0.00 0.00 52 1008.2
20260509035748 13 137 0.0 0.0 0.00 0.00 0.00 51 1008.1
20260509034716 14 140 0.0 0.0 0.00 0.00 0.00 52 1008.0
20260509033733 14 124 0.0 0.0 0.00 0.00 0.00 47 1007.9
20260509032724 15 148 0.0 0.0 0.00 0.00 0.00 43 1007.6
20260509030652 15 243 0.0 0.0 0.00 0.00 0.00 41 1007.4
20260509024510 16 110 0.0 0.0 0.00 0.00 0.00 38 1007.0
20260509023449 17 229 0.0 0.0 0.00 0.00 0.00 36 1006.9
20260509022437 17 250 0.0 8.0 0.00 0.00 0.00 34 1006.7
20260509020313 18 256 0.0 0.0 0.00 0.00 0.00 34 1006.3
20260509015300 19 238 0.0 0.0 0.00 0.00 0.00 32 1006.3
20260509013147 20 240 0.0 0.0 0.00 0.00 0.00 27 1006.4
20260509012155 20 187 0.0 0.0 0.00 0.00 0.00 20 1006.5
20260509011154 20 186 0.0 0.0 0.00 0.00 0.00 16 1006.5
20260509005047 21 213 3.2 9.7 0.00 0.00 0.00 13 1006.6
20260509004034 21 218 4.8 11.3 0.00 0.00 0.00 13 1006.5
20260509003035 21 175 4.8 16.1 0.00 0.00 0.00 12 1006.4
20260509002055 22 225 3.2 16.1 0.00 0.00 0.00 11 1006.3
20260509001032 22 206 0.0 6.4 0.00 0.00 0.00 11 1006.2
20260509000042 22 188 1.6 4.8 0.00 0.00 0.00 11 1006.3
20260508235037 22 221 0.0 0.0 0.00 0.00 0.00 13 1006.2
20260508234032 23 215 3.2 14.5 0.00 0.00 0.00 11 1006.3
20260508232957 23 212 4.8 14.5 0.00 0.00 0.00 12 1006.5
20260508225747 22 219 3.2 14.5 0.00 0.00 0.00 13 1006.5
20260508224745 22 262 3.2 17.7 0.00 0.00 0.00 14 1006.6
20260508223810 22 232 4.8 17.7 0.00 0.00 0.00 15 1006.8
20260508222746 22 183 1.6 9.7 0.00 0.00 0.00 13 1007.0
20260508221742 22 159 3.2 22.5 0.00 0.00 0.00 12 1007.1
20260508220716 22 191 4.8 22.5 0.00 0.00 0.00 13 1006.9
20260508215738 22 157 3.2 19.3 0.00 0.00 0.00 11 1007.2
20260508214728 22 220 6.4 17.7 0.00 0.00 0.00 13 1007.3
20260508213743 22 225 4.8 20.9 0.00 0.00 0.00 13 1007.4
20260508212805 22 153 6.4 20.9 0.00 0.00 0.00 13 1007.3
20260508211815 22 172 4.8 17.7 0.00 0.00 0.00 12 1007.6
20260508210825 22 219 6.4 17.7 0.00 0.00 0.00 13 1007.5
20260508205831 22 206 3.2 9.7 0.00 0.00 0.00 14 1007.8
20260508204832 22 137 6.4 14.5 0.00 0.00 0.00 12 1007.9
20260508203837 22 225 6.4 19.3 0.00 0.00 0.00 13 1008.1
20260508202814 22 190 4.8 19.3 0.00 0.00 0.00 12 1008.1
20260508201744 22 122 9.7 27.4 0.00 0.00 0.00 11 1008.3
20260508200752 22 207 8.0 27.4 0.00 0.00 0.00 11 1008.4
20260508195733 22 217 6.4 19.3 0.00 0.00 0.00 13 1008.6
20260508194706 21 186 9.7 22.5 0.00 0.00 0.00 13 1008.5
20260508193712 21 215 6.4 22.5 0.00 0.00 0.00 16 1008.7
20260508191550 21 205 6.4 19.3 0.00 0.00 0.00 16 1009.0
20260508190542 21 141 6.4 19.3 0.00 0.00 0.00 14 1009.3
20260508185516 21 225 4.8 16.1 0.00 0.00 0.00 15 1009.4
20260508184442 20 168 0.0 4.8 0.00 0.00 0.00 17 1009.8
20260508183451 20 176 0.0 6.4 0.00 0.00 0.00 21 1009.9
20260508182449 20 205 1.6 6.4 0.00 0.00 0.00 17 1010.3
20260508181444 20 173 0.0 8.0 0.00 0.00 0.00 22 1010.5
20260508175310 19 37 0.0 4.8 0.00 0.00 0.00 21 1011.2
20260508174309 20 34 0.0 3.2 0.00 0.00 0.00 22 1011.4
20260508173325 18 100 0.0 3.2 0.00 0.00 0.00 23 1011.5
20260508172301 18 290 0.0 3.2 0.00 0.00 0.00 25 1011.8
20260508170121 17 315 0.0 4.8 0.00 0.00 0.00 26 1012.2
20260508165059 17 209 0.0 4.8 0.00 0.00 0.00 26 1012.3
20260508162945 15 205 0.0 4.8 0.00 0.00 0.00 31 1012.7
20260508161948 15 264 0.0 1.6 0.00 0.00 0.00 32 1013.0
20260508160955 14 180 0.0 3.2 0.00 0.00 0.00 32 1013.1
20260508160010 13 181 0.0 3.2 0.00 0.00 0.00 34 1013.4
20260508155024 13 205 0.0 4.8 0.00 0.00 0.00 36 1013.6
20260508153957 12 188 0.0 4.8 0.00 0.00 0.00 36 1013.9
20260508152958 12 192 0.0 4.8 0.00 0.00 0.00 39 1014.0
20260508151937 12 155 0.0 4.8 0.00 0.00 0.00 37 1014.3
20260508150919 11 231 1.6 3.2 0.00 0.00 0.00 39 1014.5
20260508145905 11 208 0.0 3.2 0.00 0.00 0.00 45 1014.7
20260508143754 10 179 0.0 0.0 0.00 0.00 0.00 45 1014.9
20260508142802 9 181 0.0 0.0 0.00 0.00 0.00 47 1015.0
20260508141742 8 193 0.0 1.6 0.00 0.00 0.00 50 1015.2
20260508140727 7 158 0.0 1.6 0.00 0.00 0.00 54 1015.3